Morrisville, VT

11:27 AM EST on December 14, 2017 (GMT -0500)
Morrisville Stowe State

Weather History for KMVL - November, 2013

Change the Weather History Date:

Sunday, November 24, 2013

  Actual Average Record
Temperature  
Mean Temperature 16 °F 32 °F  
Max Temperature 19 °F 40 °F 64 °F (1999)
Min Temperature 12 °F 23 °F 3 °F (2000)
Degree Days  
Heating Degree Days 49 33  
Month to date heating degree days 701 689  
Since 1 July heating degree days 1518 1620  
Cooling Degree Days 0 0  
Month to date cooling degree days 0 0  
Year to date cooling degree days 401 265  
Moisture  
Dew Point 6 °F    
Average Humidity 63    
Maximum Humidity 80    
Minimum Humidity 46    
Precipitation  
Precipitation T in 0.10 in 0.28 in (2004)
Month to date precipitation 2.16 2.48  
Year to date precipitation 37.71 32.72  
Sea Level Pressure  
Sea Level Pressure 29.97 in    
Wind  
Wind Speed 12 mph (NW)    
Max Wind Speed 28 mph    
Max Gust Speed 39 mph    
Visibility 3 miles    
Events Snow    
T = Trace of Precipitation, MM = Missing Value Source: NWS Daily Summary

Daily Weather History Graph

Daily Weather History Graph

Search for Another Location

Airport or City:

Trip Planner

Search our weather history database for the weather conditions in past years. The results will help you decide how hot, cold, wet, or windy it might be!

Date:

Astronomy

Nov. 24, 2013 Rise Set
Actual Time 6:58 AM EST 4:15 PM EST
Civil Twilight 6:26 AM EST 4:47 PM EST
Nautical Twilight 5:50 AM EST 5:23 PM EST
Astronomical Twilight 5:15 AM EST 5:58 PM EST
Moon 10:46 PM EST (11/24) 11:38 AM EST (11/24)
Length of Visible Light 10h 21m
Length of Day
9h 16m
Waning Gibbous, 61% of the Moon is Illuminated
Nov 24
Waning Gibbous
Nov 25
Last Quarter
Dec 2
New
Dec 9
First Quarter
Dec 17
Full

Hourly Weather History & Observations

Time (EST) Temp. Windchill Dew Point Humidity Pressure Visibility Wind Dir Wind Speed Gust Speed Precip Events Conditions
12:12 AM 19.4 °F 14.3 °F 10.4 °F 68% 29.82 in 4.0 mi Variable 3.5 mph - 0.00 in Snow Light Snow
12:19 AM 17.6 °F 10.7 °F 10.4 °F 73% 29.82 in 1.8 mi Variable 4.6 mph - 0.00 in Snow Light Snow
12:28 AM 17.6 °F 12.3 °F 12.2 °F 79% 29.82 in 0.8 mi Variable 3.5 mph - 0.00 in Snow Light Snow
12:36 AM 17.6 °F - 12.2 °F 79% 29.82 in 0.8 mi Calm Calm - 0.00 in Snow Light Snow
12:50 AM 17.6 °F - 12.2 °F 79% 29.82 in 0.8 mi Calm Calm - 0.00 in Snow Light Snow
12:54 AM 18.0 °F 12.7 °F 12.9 °F 81% 29.86 in 1.0 mi Variable 3.5 mph - 0.00 in Snow Light Snow
1:03 AM 17.6 °F 9.3 °F 12.2 °F 79% 29.82 in 1.8 mi SE 5.8 mph - 0.00 in Snow Light Snow
1:06 AM 17.6 °F 7.3 °F 12.2 °F 79% 29.82 in 2.5 mi SE 8.1 mph - 0.00 in Snow Light Snow
1:09 AM 17.6 °F 9.3 °F 12.2 °F 79% 29.82 in 3.0 mi ESE 5.8 mph - 0.00 in Snow Light Snow
1:31 AM 17.6 °F - 12.2 °F 79% 29.83 in 1.8 mi Calm Calm - 0.00 in Snow Light Snow
1:44 AM 17.6 °F - 10.4 °F 73% 29.83 in 3.0 mi Calm Calm - 0.00 in Snow Light Snow
1:54 AM 18.0 °F 12.7 °F 10.0 °F 71% 29.86 in 5.0 mi Variable 3.5 mph - 0.00 in Snow Light Snow
2:54 AM 17.1 °F 8.7 °F 10.0 °F 74% 29.88 in 2.5 mi Variable 5.8 mph - 0.00 in Snow Light Snow
3:25 AM 17.6 °F 6.4 °F 8.6 °F 68% 29.84 in 5.0 mi NW 9.2 mph 21.9 mph 0.00 in Snow Light Snow
3:51 AM 17.6 °F 7.3 °F 8.6 °F 68% 29.84 in 1.8 mi WNW 8.1 mph 17.3 mph 0.00 in Snow Light Snow
3:54 AM 17.1 °F 11.7 °F 9.0 °F 71% 29.88 in 1.5 mi Variable 3.5 mph - 0.00 in Snow Light Snow
4:18 AM 17.6 °F 7.3 °F 8.6 °F 68% 29.85 in 1.0 mi NW 8.1 mph - 0.00 in Snow Light Snow
4:40 AM 15.8 °F 1.4 °F 8.6 °F 73% 29.86 in 1.5 mi NW 13.8 mph 20.7 mph 0.00 in Snow Light Snow
4:54 AM 16.0 °F 5.3 °F 8.1 °F 71% 29.91 in 1.2 mi NW 8.1 mph 19.6 mph 0.00 in Snow Light Snow
5:14 AM 15.8 °F 7.2 °F 8.6 °F 73% 29.88 in 1.0 mi Variable 5.8 mph 17.3 mph 0.00 in Snow Light Snow
5:29 AM 15.8 °F 6.1 °F 6.8 °F 68% 29.88 in 1.5 mi Variable 6.9 mph - 0.00 in Snow Light Snow
5:54 AM 14.0 °F -1.4 °F 7.0 °F 74% 29.93 in 1.0 mi WNW 15.0 mph 21.9 mph 0.00 in Snow Light Snow
6:32 AM 14.0 °F -2.5 °F 6.8 °F 73% 29.90 in 1.2 mi NW 17.3 mph 26.5 mph 0.00 in Snow Light Snow
6:50 AM 14.0 °F -0.2 °F 6.8 °F 73% 29.91 in 2.0 mi NW 12.7 mph 23.0 mph 0.00 in Snow Light Snow
6:54 AM 14.0 °F -1.4 °F 6.1 °F 71% 29.95 in 1.5 mi WNW 15.0 mph 25.3 mph 0.00 in Snow Light Snow
7:35 AM 14.0 °F -3.4 °F 6.8 °F 73% 29.92 in 1.0 mi WNW 19.6 mph 25.3 mph 0.00 in Snow Light Snow
7:54 AM 14.0 °F -1.4 °F 6.1 °F 71% 29.97 in 1.0 mi NW 15.0 mph 21.9 mph 0.00 in Snow Light Snow
8:17 AM 14.0 °F -2.5 °F 6.8 °F 73% 29.93 in 1.8 mi NW 17.3 mph 31.1 mph 0.00 in Snow Light Snow
8:54 AM 15.1 °F 0.5 °F 5.0 °F 64% 29.99 in 1.5 mi NW 13.8 mph 25.3 mph 0.00 in Snow Light Snow
9:47 AM 14.0 °F -2.5 °F 6.8 °F 73% 29.97 in 1.0 mi WNW 17.3 mph 29.9 mph 0.00 in Snow Light Snow
9:54 AM 14.0 °F -0.2 °F 5.0 °F 67% 30.02 in 0.8 mi NW 12.7 mph 28.8 mph 0.00 in Snow Light Snow
9:59 AM 15.8 °F 3.4 °F 6.8 °F 68% 29.98 in 1.2 mi NW 10.4 mph 28.8 mph 0.00 in Snow Light Snow
10:54 AM 14.0 °F -0.2 °F 5.0 °F 67% 30.03 in 1.2 mi NNW 12.7 mph 21.9 mph 0.00 in Snow Light Snow
11:03 AM 15.8 °F 1.4 °F 5.0 °F 62% 29.99 in 1.8 mi NW 13.8 mph 24.2 mph 0.00 in Snow Light Snow
11:10 AM 15.8 °F 0.3 °F 3.2 °F 58% 29.98 in 2.0 mi WNW 16.1 mph 31.1 mph 0.00 in Snow Light Snow
11:25 AM 15.8 °F -1.1 °F 3.2 °F 58% 29.98 in 4.0 mi NW 19.6 mph 31.1 mph 0.00 in   Overcast
11:49 AM 15.8 °F 2.7 °F 5.0 °F 62% 29.99 in 2.0 mi NW 11.5 mph 29.9 mph 0.00 in Snow Light Snow
11:54 AM 15.1 °F -0.1 °F 5.0 °F 64% 30.04 in 3.0 mi NW 15.0 mph 24.2 mph 0.00 in Snow Light Snow
12:04 PM 15.8 °F 3.4 °F 5.0 °F 62% 29.99 in 2.5 mi NW 10.4 mph 25.3 mph 0.00 in Snow Light Snow
12:13 PM 15.8 °F 2.1 °F 3.2 °F 58% 30.00 in 3.0 mi NW 12.7 mph 24.2 mph 0.00 in Snow Light Snow
12:21 PM 15.8 °F 2.1 °F 5.0 °F 62% 30.00 in 2.0 mi NW 12.7 mph 20.7 mph 0.00 in Snow Light Snow
12:32 PM 15.8 °F 2.7 °F 5.0 °F 62% 30.00 in 1.5 mi NW 11.5 mph 27.6 mph 0.00 in Snow Light Snow
12:47 PM 15.8 °F 4.2 °F 6.8 °F 68% 30.00 in 1.5 mi NW 9.2 mph 20.7 mph 0.00 in Snow Light Snow
12:54 PM 15.1 °F 1.1 °F 6.1 °F 68% 30.04 in 1.5 mi NW 12.7 mph 19.6 mph 0.00 in Snow Light Snow
1:32 PM 15.8 °F 0.3 °F 6.8 °F 68% 30.00 in 0.8 mi NW 16.1 mph 31.1 mph 0.00 in Snow Light Snow
1:43 PM 15.8 °F 1.4 °F 6.8 °F 68% 30.00 in 1.0 mi WNW 13.8 mph 25.3 mph 0.00 in Snow Light Snow
1:54 PM 16.0 °F -0.9 °F 6.1 °F 65% 30.05 in 1.2 mi WNW 19.6 mph 28.8 mph 0.00 in Snow Light Snow
2:12 PM 17.6 °F 3.7 °F 3.2 °F 53% 30.02 in 3.0 mi NW 13.8 mph 28.8 mph 0.00 in Snow Light Snow
2:54 PM 18.0 °F 0.6 °F 3.0 °F 52% 30.07 in 9.0 mi WNW 23.0 mph 32.2 mph 0.00 in   Overcast
3:54 PM 18.0 °F 2.2 °F 1.0 °F 48% 30.09 in 5.0 mi NW 18.4 mph 36.8 mph 0.00 in   Overcast
4:54 PM 17.1 °F 2.0 °F -0.0 °F 47% 30.12 in 6.0 mi NW 16.1 mph 34.5 mph 0.00 in   Mostly Cloudy
5:54 PM 17.1 °F -0.3 °F -0.9 °F 45% 30.15 in 8.0 mi NW 21.9 mph 32.2 mph 0.00 in   Scattered Clouds
6:54 PM 16.0 °F -0.4 °F -2.0 °F 45% 30.17 in 10.0 mi WNW 18.4 mph 31.1 mph N/A   Partly Cloudy
7:54 PM 15.1 °F 6.4 °F 1.0 °F 54% 30.19 in 10.0 mi Variable 5.8 mph - N/A   Scattered Clouds
8:54 PM 14.0 °F 1.2 °F -0.0 °F 54% 30.20 in 10.0 mi NW 10.4 mph 26.5 mph N/A   Clear
9:54 PM 12.9 °F -2.2 °F -0.9 °F 54% 30.22 in 10.0 mi NW 13.8 mph 20.7 mph N/A   Clear
10:54 PM 12.9 °F 2.6 °F -2.0 °F 51% 30.24 in 10.0 mi NW 6.9 mph 28.8 mph N/A   Clear
11:54 PM 12.0 °F 1.5 °F -2.9 °F 51% 30.26 in 10.0 mi Variable 6.9 mph - N/A   Clear